Location: Newark
(50.8922°N, 11.6094°E)
Time: 01:11:43
(UTC+00:00)

N. Korean satellite - Pass Details

Date: 27 January 2020
Orbit: 456 x 505 km, 97.2° (Epoch: 27 February)

Event Time Altitude Azimuth Distance (km) Brightness Sun altitude
Rises 17:04:15 0° 204° (SSW) 2,465 10.8 -10.9°
Reaches altitude 10° 17:06:47 10° 224° (SW) 1,599 10.2 -11.2°
Maximum altitude 17:09:10 18° 268° (W) 1,214 9.7 -11.6°
Drops below altitude 10° 17:11:34 10° 313° (NW) 1,617 9.7 -12.0°
Sets 17:14:09 0° 333° (NNW) 2,505 10.4 -12.4°
